Time,TemperatureF,DewpointF,PressureIn,WindDirection,WindDirectionDegrees,WindSpeedMPH,WindSpeedGustMPH,Humidity,HourlyPrecipIn,Conditions,Clouds,dailyrainin,SoftwareType,DateUTC
2013-12-05 00:03:00,67.9,64.0,29.75,SSW,198,4.0,-999.0,86,-99.99,,,0.00,weatherlink.com 1.10,2013-12-05 06:03:00,
2013-12-05 00:18:00,67.9,64.0,29.75,SSW,205,6.0,-999.0,86,-99.99,,,0.00,weatherlink.com 1.10,2013-12-05 06:18:00,
2013-12-05 00:33:00,67.9,64.0,29.75,SSW,194,5.0,-999.0,86,-99.99,,,0.00,weatherlink.com 1.10,2013-12-05 06:33:00,
2013-12-05 00:48:00,68.1,64.0,29.75,SSW,192,5.0,-999.0,86,-99.99,,,0.00,weatherlink.com 1.10,2013-12-05 06:48:00,
2013-12-05 01:03:00,67.9,64.0,29.75,SSW,205,3.0,-999.0,86,-99.99,,,0.00,weatherlink.com 1.10,2013-12-05 07:03:00,
2013-12-05 01:18:00,67.5,64.0,29.76,SW,218,0.0,-999.0,87,-99.99,,,0.00,weatherlink.com 1.10,2013-12-05 07:18:00,
2013-12-05 01:33:00,67.2,63.0,29.76,WNW,285,0.0,-999.0,87,-99.99,,,0.00,weatherlink.com 1.10,2013-12-05 07:33:00,
2013-12-05 01:48:00,66.3,62.0,29.77,West,277,1.0,-999.0,87,-99.99,,,0.00,weatherlink.com 1.10,2013-12-05 07:48:00,
2013-12-05 02:03:00,65.9,63.0,29.77,West,271,3.0,-999.0,89,-99.99,,,0.00,weatherlink.com 1.10,2013-12-05 08:03:00,
2013-12-05 02:18:00,66.1,63.0,29.77,West,278,3.0,-999.0,89,-99.99,,,0.00,weatherlink.com 1.10,2013-12-05 08:18:00,
2013-12-05 02:33:00,65.8,63.0,29.77,West,260,3.0,-999.0,89,-99.99,,,0.00,weatherlink.com 1.10,2013-12-05 08:33:00,
2013-12-05 02:48:00,65.6,63.0,29.78,West,271,5.0,-999.0,90,-99.99,,,0.00,weatherlink.com 1.10,2013-12-05 08:48:00,
2013-12-05 03:03:00,65.4,63.0,29.79,West,271,3.0,-999.0,90,-99.99,,,0.00,weatherlink.com 1.10,2013-12-05 09:03:00,
2013-12-05 03:18:00,64.9,62.0,29.79,WSW,257,0.0,-999.0,91,-99.99,,,0.00,weatherlink.com 1.10,2013-12-05 09:18:00,
2013-12-05 03:33:00,63.4,60.0,29.79,NW,326,6.0,-999.0,88,-99.99,,,0.00,weatherlink.com 1.10,2013-12-05 09:33:00,
2013-12-05 03:48:00,58.7,56.0,29.80,NW,323,1.0,-999.0,89,-99.99,,,0.00,weatherlink.com 1.10,2013-12-05 09:48:00,
2013-12-05 04:03:00,56.5,53.0,29.80,NNW,329,3.0,-999.0,89,-99.99,,,0.00,weatherlink.com 1.10,2013-12-05 10:03:00,
2013-12-05 04:18:00,55.2,52.0,29.82,NNW,333,9.0,-999.0,89,-99.99,,,0.00,weatherlink.com 1.10,2013-12-05 10:18:00,
2013-12-05 04:33:00,53.2,50.0,29.83,NNW,338,10.0,-999.0,87,-99.99,,,0.00,weatherlink.com 1.10,2013-12-05 10:33:00,
2013-12-05 04:48:00,52.3,49.0,29.83,NNW,346,10.0,-999.0,88,-99.99,,,0.00,weatherlink.com 1.10,2013-12-05 10:48:00,
2013-12-05 05:03:00,51.9,49.0,29.84,NNW,333,5.0,-999.0,89,-99.99,,,0.00,weatherlink.com 1.10,2013-12-05 11:03:00,
2013-12-05 05:18:00,51.5,48.0,29.86,NW,325,8.0,-999.0,88,-99.99,,,0.00,weatherlink.com 1.10,2013-12-05 11:18:00,
2013-12-05 05:33:00,51.2,48.0,29.86,NNW,330,8.0,-999.0,88,-99.99,,,0.00,weatherlink.com 1.10,2013-12-05 11:33:00,
2013-12-05 05:48:00,50.5,47.0,29.87,NNW,330,10.0,-999.0,89,-99.99,,,0.00,weatherlink.com 1.10,2013-12-05 11:48:00,
2013-12-05 06:03:00,49.2,46.0,29.88,NNW,332,9.0,-999.0,89,-99.99,,,0.02,weatherlink.com 1.10,2013-12-05 12:03:00,
2013-12-05 06:18:00,48.4,46.0,29.89,NNW,330,8.0,-999.0,91,-99.99,,,0.05,weatherlink.com 1.10,2013-12-05 12:18:00,
2013-12-05 06:33:00,47.6,45.0,29.91,NW,326,6.0,-999.0,92,-99.99,,,0.08,weatherlink.com 1.10,2013-12-05 12:33:00,
2013-12-05 06:48:00,47.1,45.0,29.92,NNW,336,13.0,-999.0,92,-99.99,,,0.11,weatherlink.com 1.10,2013-12-05 12:48:00,
2013-12-05 07:03:00,45.3,43.0,29.92,NNW,332,10.0,-999.0,91,-99.99,,,0.15,weatherlink.com 1.10,2013-12-05 13:03:00,
2013-12-05 07:18:00,44.1,42.0,29.94,NNW,344,10.0,-999.0,91,-99.99,,,0.16,weatherlink.com 1.10,2013-12-05 13:18:00,
2013-12-05 07:33:00,43.4,41.0,29.95,NNW,336,9.0,-999.0,90,-99.99,,,0.16,weatherlink.com 1.10,2013-12-05 13:33:00,
2013-12-05 07:48:00,42.9,40.0,29.98,NNW,331,6.0,-999.0,90,-99.99,,,0.16,weatherlink.com 1.10,2013-12-05 13:48:00,
2013-12-05 08:03:00,42.7,40.0,29.97,NNW,340,4.0,-999.0,89,-99.99,,,0.16,weatherlink.com 1.10,2013-12-05 14:03:00,
2013-12-05 08:18:00,42.3,39.0,29.97,NNW,348,5.0,-999.0,88,-99.99,,,0.16,weatherlink.com 1.10,2013-12-05 14:18:00,
2013-12-05 08:33:00,42.3,39.0,29.98,NNW,342,6.0,-999.0,87,-99.99,,,0.16,weatherlink.com 1.10,2013-12-05 14:33:00,
2013-12-05 08:48:00,42.4,39.0,30.00,North,5,11.0,-999.0,87,-99.99,,,0.16,weatherlink.com 1.10,2013-12-05 14:48:00,
2013-12-05 09:03:00,42.2,38.0,30.02,North,355,10.0,-999.0,86,-99.99,,,0.16,weatherlink.com 1.10,2013-12-05 15:03:00,
2013-12-05 09:18:00,42.1,38.0,30.02,NNW,336,5.0,-999.0,86,-99.99,,,0.16,weatherlink.com 1.10,2013-12-05 15:18:00,
2013-12-05 09:33:00,41.9,37.0,30.04,NNW,329,7.0,-999.0,84,-99.99,,,0.16,weatherlink.com 1.10,2013-12-05 15:33:00,
2013-12-05 09:48:00,41.1,36.0,30.04,NW,320,9.0,-999.0,83,-99.99,,,0.16,weatherlink.com 1.10,2013-12-05 15:48:00,
2013-12-05 10:03:00,40.7,36.0,30.04,NNW,340,5.0,-999.0,83,-99.99,,,0.16,weatherlink.com 1.10,2013-12-05 16:03:00,
2013-12-05 10:18:00,40.4,36.0,30.02,North,355,9.0,-999.0,84,-99.99,,,0.16,weatherlink.com 1.10,2013-12-05 16:18:00,
2013-12-05 10:33:00,40.0,35.0,30.03,North,350,9.0,-999.0,83,-99.99,,,0.16,weatherlink.com 1.10,2013-12-05 16:33:00,
2013-12-05 10:48:00,39.0,33.0,30.03,NNW,339,6.0,-999.0,80,-99.99,,,0.16,weatherlink.com 1.10,2013-12-05 16:48:00,
2013-12-05 11:03:00,38.8,34.0,30.02,North,355,12.0,-999.0,82,-99.99,,,0.16,weatherlink.com 1.10,2013-12-05 17:03:00,
2013-12-05 11:18:00,38.4,33.0,30.03,NNW,331,6.0,-999.0,80,-99.99,,,0.16,weatherlink.com 1.10,2013-12-05 17:18:00,
2013-12-05 11:33:00,38.0,32.0,30.04,NNW,348,5.0,-999.0,80,-99.99,,,0.16,weatherlink.com 1.10,2013-12-05 17:33:00,
2013-12-05 11:48:00,37.8,32.0,30.02,North,355,10.0,-999.0,80,-99.99,,,0.16,weatherlink.com 1.10,2013-12-05 17:48:00,
2013-12-05 12:03:00,37.6,32.0,30.01,NNW,331,6.0,-999.0,81,-99.99,,,0.16,weatherlink.com 1.10,2013-12-05 18:03:00,
2013-12-05 12:18:00,37.4,32.0,30.03,NNW,334,9.0,-999.0,80,-99.99,,,0.16,weatherlink.com 1.10,2013-12-05 18:18:00,
2013-12-05 12:33:00,37.6,32.0,30.04,NNW,333,7.0,-999.0,81,-99.99,,,0.16,weatherlink.com 1.10,2013-12-05 18:33:00,
2013-12-05 12:48:00,37.3,32.0,30.02,NNW,337,6.0,-999.0,82,-99.99,,,0.16,weatherlink.com 1.10,2013-12-05 18:48:00,
2013-12-05 13:03:00,37.0,32.0,30.05,NNW,332,7.0,-999.0,81,-99.99,,,0.16,weatherlink.com 1.10,2013-12-05 19:03:00,
2013-12-05 13:18:00,36.5,32.0,30.06,NW,322,6.0,-999.0,84,-99.99,,,0.16,weatherlink.com 1.10,2013-12-05 19:18:00,
2013-12-05 13:33:00,36.3,32.0,30.06,NNW,336,14.0,-999.0,85,-99.99,,,0.16,weatherlink.com 1.10,2013-12-05 19:33:00,
2013-12-05 13:48:00,36.0,32.0,30.05,NNW,338,10.0,-999.0,84,-99.99,,,0.16,weatherlink.com 1.10,2013-12-05 19:48:00,
2013-12-05 14:03:00,35.4,31.0,30.05,North,355,16.0,-999.0,85,-99.99,,,0.16,weatherlink.com 1.10,2013-12-05 20:03:00,
2013-12-05 14:18:00,35.2,31.0,30.04,North,355,8.0,-999.0,85,-99.99,,,0.16,weatherlink.com 1.10,2013-12-05 20:18:00,
2013-12-05 14:33:00,35.1,31.0,30.03,NNW,348,10.0,-999.0,85,-99.99,,,0.16,weatherlink.com 1.10,2013-12-05 20:33:00,
2013-12-05 14:48:00,35.0,32.0,30.06,North,349,7.0,-999.0,87,-99.99,,,0.16,weatherlink.com 1.10,2013-12-05 20:48:00,
2013-12-05 15:03:00,34.7,31.0,30.06,NNW,336,8.0,-999.0,87,-99.99,,,0.16,weatherlink.com 1.10,2013-12-05 21:03:00,
2013-12-05 15:18:00,34.4,31.0,30.05,North,355,12.0,-999.0,87,-99.99,,,0.16,weatherlink.com 1.10,2013-12-05 21:18:00,
2013-12-05 15:33:00,34.4,31.0,30.05,North,355,7.0,-999.0,88,-99.99,,,0.16,weatherlink.com 1.10,2013-12-05 21:33:00,
2013-12-05 15:48:00,34.4,31.0,30.08,North,5,5.0,-999.0,88,-99.99,,,0.16,weatherlink.com 1.10,2013-12-05 21:48:00,
2013-12-05 16:03:00,34.4,31.0,30.09,North,355,6.0,-999.0,88,-99.99,,,0.16,weatherlink.com 1.10,2013-12-05 22:03:00,
2013-12-05 16:18:00,34.3,31.0,30.08,North,360,9.0,-999.0,88,-99.99,,,0.16,weatherlink.com 1.10,2013-12-05 22:18:00,
2013-12-05 16:33:00,34.1,31.0,30.09,North,349,8.0,-999.0,89,-99.99,,,0.16,weatherlink.com 1.10,2013-12-05 22:33:00,
2013-12-05 16:48:00,34.0,31.0,30.09,North,350,5.0,-999.0,90,-99.99,,,0.17,weatherlink.com 1.10,2013-12-05 22:48:00,
2013-12-05 17:03:00,34.0,31.0,30.09,NNW,347,4.0,-999.0,90,-99.99,,,0.17,weatherlink.com 1.10,2013-12-05 23:03:00,
2013-12-05 17:18:00,33.8,31.0,30.09,North,350,9.0,-999.0,90,-99.99,,,0.18,weatherlink.com 1.10,2013-12-05 23:18:00,
2013-12-05 17:33:00,33.7,31.0,30.09,North,355,9.0,-999.0,91,-99.99,,,0.18,weatherlink.com 1.10,2013-12-05 23:33:00,
2013-12-05 17:48:00,33.7,31.0,30.11,North,350,5.0,-999.0,91,-99.99,,,0.18,weatherlink.com 1.10,2013-12-05 23:48:00,
2013-12-05 18:03:00,33.6,31.0,30.09,NNW,348,11.0,-999.0,91,-99.99,,,0.18,weatherlink.com 1.10,2013-12-06 00:03:00,
2013-12-05 18:18:00,33.7,31.0,30.10,North,355,15.0,-999.0,91,-99.99,,,0.18,weatherlink.com 1.10,2013-12-06 00:18:00,
2013-12-05 18:33:00,32.7,30.0,30.10,North,351,14.0,-999.0,91,-99.99,,,0.18,weatherlink.com 1.10,2013-12-06 00:33:00,
2013-12-05 18:48:00,32.4,30.0,30.10,North,355,9.0,-999.0,90,-99.99,,,0.18,weatherlink.com 1.10,2013-12-06 00:48:00,
2013-12-05 19:03:00,32.1,30.0,30.12,North,351,9.0,-999.0,90,-99.99,,,0.18,weatherlink.com 1.10,2013-12-06 01:03:00,
2013-12-05 19:18:00,31.9,29.0,30.13,North,360,7.0,-999.0,90,-99.99,,,0.18,weatherlink.com 1.10,2013-12-06 01:18:00,
2013-12-05 19:34:00,31.8,29.0,30.14,North,349,11.0,-999.0,89,-99.99,,,0.18,weatherlink.com 1.10,2013-12-06 01:34:00,
2013-12-05 19:48:00,31.9,29.0,30.15,North,360,7.0,-999.0,89,-99.99,,,0.18,weatherlink.com 1.10,2013-12-06 01:48:00,
2013-12-05 20:03:00,32.0,29.0,30.14,North,5,6.0,-999.0,88,-99.99,,,0.18,weatherlink.com 1.10,2013-12-06 02:03:00,
2013-12-05 20:18:00,32.1,29.0,30.12,NNW,346,6.0,-999.0,88,-99.99,,,0.18,weatherlink.com 1.10,2013-12-06 02:18:00,
2013-12-05 20:33:00,32.1,29.0,30.14,North,9,9.0,-999.0,88,-99.99,,,0.18,weatherlink.com 1.10,2013-12-06 02:33:00,
2013-12-05 20:49:00,32.1,29.0,30.18,NNW,344,9.0,-999.0,88,-99.99,,,0.18,weatherlink.com 1.10,2013-12-06 02:49:00,
2013-12-05 21:04:00,31.9,29.0,30.13,NNW,333,12.0,-999.0,89,-99.99,,,0.20,weatherlink.com 1.10,2013-12-06 03:04:00,
2013-12-05 21:19:00,31.5,29.0,30.14,North,355,0.0,-999.0,90,-99.99,,,0.20,weatherlink.com 1.10,2013-12-06 03:19:00,
2013-12-05 21:34:00,31.4,29.0,30.11,NNE,26,0.0,-999.0,91,-99.99,,,0.20,weatherlink.com 1.10,2013-12-06 03:34:00,
2013-12-05 21:49:00,31.3,29.0,30.17,NNW,331,0.0,-999.0,91,-99.99,,,0.20,weatherlink.com 1.10,2013-12-06 03:49:00,
2013-12-05 22:03:00,31.4,29.0,30.18,North,355,0.0,-999.0,91,-99.99,,,0.20,weatherlink.com 1.10,2013-12-06 04:03:00,
2013-12-05 22:18:00,31.3,29.0,30.15,North,10,0.0,-999.0,92,-99.99,,,0.20,weatherlink.com 1.10,2013-12-06 04:18:00,
2013-12-05 22:33:00,30.8,29.0,30.12,NNE,13,0.0,-999.0,92,-99.99,,,0.20,weatherlink.com 1.10,2013-12-06 04:33:00,
2013-12-05 22:49:00,30.4,28.0,30.14,North,350,0.0,-999.0,92,-99.99,,,0.20,weatherlink.com 1.10,2013-12-06 04:49:00,
2013-12-05 23:03:00,30.4,28.0,30.18,North,350,0.0,-999.0,92,-99.99,,,0.20,weatherlink.com 1.10,2013-12-06 05:03:00,
2013-12-05 23:18:00,30.8,29.0,30.14,North,355,0.0,-999.0,93,-99.99,,,0.20,weatherlink.com 1.10,2013-12-06 05:18:00,
2013-12-05 23:33:00,30.5,29.0,30.15,North,355,0.0,-999.0,93,-99.99,,,0.20,weatherlink.com 1.10,2013-12-06 05:33:00,
2013-12-05 23:48:00,30.3,29.0,30.14,North,355,0.0,-999.0,93,-99.99,,,0.20,weatherlink.com 1.10,2013-12-06 05:48:00,